Location: Mount Cross
(36.6390°N, 79.4878°W)
Time: 14:31:57
(UTC+00:00)

S-56A Canister/Altair - All Passes

Search period start: 30 March 2023 00:00
Search period end: 09 April 2023 00:00
Orbit: 639 x 2493 km, 38.9° (Epoch: 29 March)

Date Brightness Start Highest point End Pass type
(mag) Time Alt. Az. Time Alt. Az. Time Alt. Az.
30 Mar - 01:47:03 10° W 01:59:46 83° N 02:15:08 10° E visible
30 Mar - 03:52:45 10° WNW 04:07:00 72° SSW 04:21:32 10° SE visible
30 Mar - 05:59:56 10° WNW 06:12:37 35° SW 06:24:12 10° SSE visible
30 Mar - 21:06:45 10° SSW 21:14:19 43° SE 21:25:16 10° ENE daylight
30 Mar - 23:09:16 10° WSW 23:19:05 87° SSE 23:33:15 10° ENE daylight
31 Mar - 01:13:55 10° W 01:25:58 82° N 01:41:15 10° E visible
31 Mar - 03:19:22 10° WNW 03:33:14 77° SSW 03:48:07 10° ESE visible
31 Mar - 05:26:03 10° WNW 05:39:09 39° SW 05:51:31 10° SSE visible
31 Mar - 20:34:30 10° SSW 20:41:23 36° SE 20:51:11 10° ENE daylight
31 Mar - 22:36:32 10° WSW 22:45:40 83° SSE 22:59:15 10° ENE daylight
01 Apr - 00:40:53 10° W 00:52:14 81° N 01:07:19 10° E visible
01 Apr - 02:46:04 10° WNW 02:59:26 81° SSW 03:14:36 10° ESE visible
01 Apr - 04:52:19 10° WNW 05:05:37 44° SW 05:18:41 10° SSE visible
01 Apr - 07:04:31 10° WSW 07:09:54 13° SW 07:15:06 10° SSW night (unlit)
01 Apr - 20:02:24 10° SSW 20:08:34 30° SE 20:17:06 10° E daylight
01 Apr - 22:03:53 10° WSW 22:12:23 78° SSE 22:25:15 10° ENE daylight
02 Apr - 00:07:55 10° W 00:18:34 81° N 00:33:20 10° E visible
02 Apr - 02:12:51 10° WNW 02:25:40 84° SSW 02:40:57 10° ESE visible
02 Apr - 04:18:42 10° WNW 04:32:02 48° SW 04:45:41 10° SSE visible
02 Apr - 06:28:57 10° W 06:36:39 16° SW 06:44:06 10° SSW visible
02 Apr - 19:30:27 10° S 19:35:49 24° SE 19:42:57 10° E daylight
02 Apr - 21:31:18 10° WSW 21:39:11 72° SSE 21:51:17 10° ENE daylight
02 Apr - 23:35:01 10° W 23:44:59 81° N 23:59:18 10° E daylight
03 Apr - 01:39:44 10° WNW 01:51:55 87° SSW 02:07:12 10° ESE visible
03 Apr - 03:45:14 10° WNW 03:58:24 52° SW 04:12:33 10° SE visible
03 Apr - 05:54:10 10° W 06:03:21 20° SW 06:12:20 10° SSW visible
03 Apr - 18:58:43 10° S 19:03:08 18° SE 19:08:41 10° E daylight
03 Apr - 20:58:47 10° SW 21:06:06 65° SSE 21:17:20 10° ENE daylight
03 Apr - 23:02:12 10° W 23:11:30 81° N 23:25:15 10° E daylight
04 Apr - 01:06:43 10° WNW 01:18:13 89° NNE 01:33:20 10° ESE visible
04 Apr - 03:11:53 10° WNW 03:24:45 57° SSW 03:39:16 10° SE visible
04 Apr - 05:19:49 10° W 05:29:59 23° SW 05:40:10 10° S visible
04 Apr - 18:27:26 10° SSE 18:30:31 14° SE 18:34:05 10° E daylight
04 Apr - 20:26:20 10° SW 20:33:06 58° SSE 20:43:26 10° ENE daylight
04 Apr - 22:29:27 10° W 22:38:06 83° N 22:51:12 10° E daylight
05 Apr - 00:33:44 10° WNW 00:44:35 87° NNE 00:59:25 10° ESE visible
05 Apr - 02:38:37 10° WNW 02:51:06 61° SSW 03:05:51 10° SE visible
05 Apr - 04:45:46 10° W 04:56:34 26° SW 05:07:43 10° S visible
05 Apr - 19:53:59 10° SW 20:00:12 50° SE 20:09:34 10° ENE daylight
05 Apr - 21:56:45 10° W 22:04:48 85° N 22:17:11 10° E daylight
06 Apr - 00:00:51 10° W 00:11:00 84° N 00:25:25 10° E visible
06 Apr - 02:05:28 10° WNW 02:17:27 65° SSW 02:32:19 10° SE visible
06 Apr - 04:11:57 10° W 04:23:06 30° SW 04:35:02 10° S visible
06 Apr - 19:21:41 10° SSW 19:27:24 42° SE 19:35:46 10° ENE daylight
06 Apr - 21:24:07 10° WSW 21:31:34 87° NNW 21:43:12 10° ENE daylight
06 Apr - 23:28:01 10° W 23:37:30 82° N 23:51:23 10° E daylight
07 Apr - 01:32:24 10° WNW 01:43:49 69° SSW 01:58:40 10° SE visible
07 Apr - 03:38:19 10° W 03:49:36 33° SW 04:02:09 10° SSE visible
07 Apr - 18:49:29 10° SSW 18:54:41 35° SE 19:01:59 10° E daylight
07 Apr - 20:51:32 10° WSW 20:58:28 89° SSE 21:09:17 10° ENE daylight
07 Apr - 22:55:15 10° W 23:04:04 80° N 23:17:19 10° E daylight
08 Apr - 00:59:26 10° WNW 01:10:15 74° SSW 01:24:55 10° ESE visible
08 Apr - 03:04:52 10° W 03:16:05 37° SW 03:29:06 10° SSE visible
08 Apr - 18:17:22 10° SSW 18:22:01 28° SE 18:28:13 10° E daylight
08 Apr - 20:18:59 10° WSW 20:25:26 84° SSE 20:35:27 10° ENE daylight
08 Apr - 22:22:32 10° W 22:30:43 79° N 22:43:16 10° E daylight
